Simultaneous Nadir Overpasses (SNOs) Predictions

Prediction of SNOs between AQUA and METOP-B Satellite Orbit:

Table of predicted SNOs for the next 14.0 days since TLE Epoch: 12/14/2024
Index Date (AQUA) Time (AQUA) Lat,Lon (AQUA) SZA (AQUA ) Date (METOP-B) Time (METOP-B) Lat,Lon (METOP-B) SZA (METOP-B ) Distance(km) Time Diff (sec)
1 12/16/2024 00:05:53 76.62, 176.92 99.87 12/16/2024 00:05:14 76.64, 176.81 99.89 3.22 39
2 12/16/2024 00:55:13 -76.67, -15.59 80.08 12/16/2024 00:55:54 -76.71, -15.59 80.04 4.25 41
3 12/18/2024 13:45:23 -76.67, 151.93 80.00 12/18/2024 13:45:07 -76.65, 151.88 80.01 2.08 16
4 12/18/2024 14:34:44 76.70, -40.53 100.04 12/18/2024 14:35:46 76.72, -40.56 100.05 1.66 62
5 12/21/2024 02:35:32 -76.65, -40.48 79.99 12/21/2024 02:34:20 -76.63, -40.54 80.01 2.45 72
6 12/21/2024 03:24:53 76.68, 127.06 100.05 12/21/2024 03:24:59 76.69, 127.01 100.06 1.40 6
7 12/23/2024 16:15:01 76.69, -65.44 100.04 12/23/2024 16:14:11 76.69, -65.31 100.04 3.42 50
8 12/23/2024 17:04:21 -76.74, 102.05 79.92 12/23/2024 17:04:52 -76.73, 102.16 79.93 2.85 31
9 12/26/2024 05:54:27 -76.73, -90.36 80.00 12/26/2024 05:54:04 -76.72, -90.20 80.01 4.11 23



Historial Predications of SNOs between AQUA and METOP-B
